Air Resources Laboratory banner image
Air Resources Laboratory web site National Oceanic and Atmospheric Administration (NOAA)

wy roundup


Office: CYS

ASUS45 KCYS 212210
RWRWY

WYOMING REGIONAL WEATHER ROUNDUP
NATIONAL WEATHER SERVICE CHEYENNE WY
400 PM MDT SUN OCT 21 2018

NOTE:  "FAIR" INDICATES FEW OR NO CLOUDS BELOW 12,000 FEET
WITH NO SIGNIFICANT WEATHER AND/OR OBSTRUCTIONS TO VISIBILITY.

WYZ001-212300-
YELLOWSTONE NATIONAL PARK

CITY           SKY/WX    TMP DP  RH WIND       PRES   REMARKS
LK YELLOWSTONE   N/A     56  25  30 VRB3      30.25F
W YELLOWSTONE  NOT AVBL

$$
WYZ002>013-054>058-071-098>099-212300-
NORTHERN WYOMING

CITY           SKY/WX    TMP DP  RH WIND       PRES   REMARKS
JACKSON        FAIR      62  27  26 NW5       30.18F
CODY           FAIR      70  28  21 SE9       30.07F HAZE
GREYBULL       FAIR      71  31  22 S3        30.02F
WORLAND        FAIR      72  30  21 NW3       30.03F
SHERIDAN       FAIR      71  38  29 N9        30.03F
BUFFALO        FAIR      71  31  22 SE7       30.07F
GILLETTE       FAIR      70  33  25 E5        30.05F
HULETT         FAIR      68  34  28 E6        30.08S
NEWCASTLE      FAIR      70  28  21 SE9       30.07S

$$
WYZ014>020-022>026-101>103-212300-
CENTRAL WYOMING

CITY           SKY/WX    TMP DP  RH WIND       PRES   REMARKS
BIG PINEY      FAIR      61  22  22 NW6       30.21F
PINEDALE       FAIR      61  21  21 SE3       30.21F
DUBOIS         FAIR      63  21  20 NW6       30.16S
LANDER         FAIR      66  30  26 NE5       30.09F
RIVERTON       FAIR      64  30  27 VRB5      30.10F
CASPER         FAIR      70  27  20 W12       30.09F
DOUGLAS        FAIR      73  28  18 W16       30.07F

$$
WYZ021-027>030-104>119-212300-
SOUTHERN WYOMING

CITY           SKY/WX    TMP DP  RH WIND       PRES   REMARKS
EVANSTON       CLOUDY    63  33  32 W12       30.19F
KEMMERER       FAIR      63  27  25 W9        30.21F
ROCK SPRINGS   FAIR      62  25  24 W7        30.19F
DIXON          FAIR      65  28  24 S9G16     30.24S
RAWLINS        FAIR      63  28  26 W16G24    30.20F
SARATOGA       FAIR      63  27  25 SW13      30.23S
LARAMIE        FAIR      62  26  25 W10       30.20S
CHEYENNE       FAIR      69  28  21 NW7       30.15S
TORRINGTON     FAIR      75  25  15 NW6       30.04F

$$


ASUS45 KCYS 212210
RWRWY

WYOMING REGIONAL WEATHER ROUNDUP
NATIONAL WEATHER SERVICE CHEYENNE WY
400 PM MDT SUN OCT 21 2018

NOTE:  "FAIR" INDICATES FEW OR NO CLOUDS BELOW 12,000 FEET
WITH NO SIGNIFICANT WEATHER AND/OR OBSTRUCTIONS TO VISIBILITY.

WYZ001-212300-
...YELLOWSTONE NATIONAL PARK...

CITY           SKY/WX    TMP DP  RH WIND       PRES   REMARKS
LK YELLOWSTONE   N/A     56  25  30 VRB3      30.25F
W YELLOWSTONE  NOT AVBL

$$
WYZ002>013-054>058-071-098>099-212300-
...NORTHERN WYOMING...

CITY           SKY/WX    TMP DP  RH WIND       PRES   REMARKS
JACKSON        SUNNY     62  27  26 NW5       30.18F
CODY           SUNNY     70  28  21 SE9       30.07F HAZE
GREYBULL       SUNNY     71  31  22 S3        30.02F
WORLAND        SUNNY     72  30  21 NW3       30.03F
SHERIDAN       MOSUNNY   71  38  29 N9        30.03F
BUFFALO        SUNNY     71  31  22 SE7       30.07F
GILLETTE       SUNNY     70  33  25 E5        30.05F
HULETT         FAIR      68  34  28 E6        30.08S
NEWCASTLE      FAIR      70  28  21 SE9       30.07S

$$
WYZ014>020-022>026-101>103-212300-
...CENTRAL WYOMING...

CITY           SKY/WX    TMP DP  RH WIND       PRES   REMARKS
BIG PINEY      SUNNY     61  22  22 NW6       30.21F
PINEDALE       SUNNY     61  21  21 SE3       30.21F
DUBOIS         FAIR      63  21  20 NW6       30.16S
LANDER         SUNNY     66  30  26 NE5       30.09F
RIVERTON       SUNNY     64  30  27 VRB5      30.10F
CASPER         SUNNY     70  27  20 W12       30.09F
DOUGLAS        SUNNY     73  28  18 W16       30.07F

$$
WYZ021-027>030-104>119-212300-
...SOUTHERN WYOMING...

CITY           SKY/WX    TMP DP  RH WIND       PRES   REMARKS
EVANSTON       CLOUDY    63  33  32 W12       30.19F
KEMMERER       SUNNY     63  27  25 W9        30.21F
FORT BRIDGER   FAIR      63  29  28 E5        30.23F
ROCK SPRINGS   SUNNY     62  25  24 W7        30.19F
DIXON          FAIR      65  28  24 S9G16     30.24S
RAWLINS        SUNNY     63  28  26 W16G24    30.20F
SARATOGA       FAIR      63  27  25 SW13      30.23S
LARAMIE        SUNNY     62  26  25 W10       30.20S
CHEYENNE       MOSUNNY   69  28  21 NW7       30.15S
TORRINGTON     SUNNY     75  25  15 NW6       30.04F
PINE BLUFFS    NOT AVBL

$$